EW5635 Vallon Pont d\\\'Arc FR current weather conditions

sailwx.info

Wind from 254 at 1 knots gusting 3

Air temperature 36.1° C
Dewpoint 17.7° C

Last reported at 2020-Aug-11 12:25 UTC.
Time now 2020-Aug-11 18:50 UTC

Location: N 44°25' E 004°22'.
View on Google Maps.

See reports from other nearby stations

  
Tides and Currents Weather Stations Pressure Air Temp Water Temp Dewpoint Dewpoint Depression Visibility Wind Speed Wind Dir Waves Ship Positions
date/time (UTC)wind fromknots sea level pressurealtimeterstation pressurevisibilityair tempwater tempwave heightnotes
2020-Aug-11 12:25 254 1 gusting 3 36.1
2020-Aug-11 12:20 275 3 gusting 3 36.1
2020-Aug-11 12:15 205 2 gusting 6 35.6
2020-Aug-11 12:05 167 0 gusting 4 35.0
2020-Aug-11 11:55 245 35.0
2020-Aug-11 11:50 201 4 gusting 6 35.0
2020-Aug-11 11:45 161 2 gusting 7 34.4
2020-Aug-11 11:40 130 6 gusting 7 35.0
2020-Aug-11 11:35 303 1 gusting 5 34.4
2020-Aug-11 11:30 159 3 gusting 5 34.4
2020-Aug-11 11:25 171 2 gusting 5 33.9
2020-Aug-11 11:20 171 5 gusting 5 33.9
2020-Aug-11 11:15 163 4 gusting 5 33.9
2020-Aug-11 11:10 220 3 gusting 5 33.9
2020-Aug-11 11:05 272 3 gusting 3 33.9
2020-Aug-11 11:00 236 33.3
2020-Aug-11 10:55 221 33.3
2020-Aug-11 10:50 222 1 gusting 3 33.3
2020-Aug-11 10:45 296 2 gusting 3 33.3
2020-Aug-11 10:40 323 1 gusting 3 32.8
2020-Aug-11 10:35 195 32.2
2020-Aug-11 10:30 163 2 gusting 2 32.2
2020-Aug-11 10:25 196 2 gusting 3 32.2
2020-Aug-11 10:20 225 32.2
2020-Aug-11 10:15 250 2 gusting 2 32.2
2020-Aug-11 10:10 287 1 gusting 3 32.2
2020-Aug-11 10:05 276 2 gusting 3 31.7
2020-Aug-11 10:00 270 3 gusting 3 31.7
2020-Aug-11 09:55 276 3 gusting 3 31.7
2020-Aug-11 09:50 305 2 gusting 3 31.7
2020-Aug-11 09:45 328 2 gusting 5 31.7
2020-Aug-11 09:40 311 2 gusting 5 31.1
2020-Aug-11 09:35 290 5 gusting 5 30.6
2020-Aug-11 09:30 298 1 gusting 4 30.0
2020-Aug-11 09:25 308 1 gusting 3 30.0
2020-Aug-11 09:20 316 3 gusting 3 30.0
2020-Aug-11 09:15 317 1 gusting 4 29.4
2020-Aug-11 09:10 318 3 gusting 4 28.9
2020-Aug-11 09:05 298 0 gusting 3 28.9
2020-Aug-11 09:00 288 0 gusting 5 28.3
2020-Aug-11 08:55 294 1 gusting 5 28.3
2020-Aug-11 08:50 307 2 gusting 4 27.8
2020-Aug-11 08:45 308 2 gusting 4 27.8
2020-Aug-11 08:40 304 3 gusting 3 27.2
2020-Aug-11 08:35 339 2 gusting 3 27.2
2020-Aug-11 08:30 011 3 gusting 3 26.7
2020-Aug-11 08:25 357 2 gusting 5 26.7
2020-Aug-11 08:20 343 3 gusting 5 26.1
2020-Aug-11 08:15 338 2 gusting 3 25.6
2020-Aug-11 08:10 323 3 gusting 3 25.0
2020-Aug-11 08:05 316 1 gusting 4 25.0
2020-Aug-11 08:00 342 3 gusting 4 24.4
2020-Aug-11 07:55 008 2 gusting 3 24.4
2020-Aug-11 07:50 005 0 gusting 3 24.4
2020-Aug-11 07:45 309 1 gusting 3 23.9
2020-Aug-11 07:40 307 1 gusting 3 23.3
2020-Aug-11 07:35 324 2 gusting 3 23.3
2020-Aug-11 07:30 329 22.8
2020-Aug-11 07:25 347 0 gusting 1 22.8
2020-Aug-11 07:20 013 22.2
2020-Aug-11 07:15 013 2 gusting 2 21.7
2020-Aug-11 07:10 020 21.1
2020-Aug-11 07:05 010 1 gusting 2 21.1
2020-Aug-11 07:00 012 20.6
2020-Aug-11 06:55 022 2 gusting 2 20.0
2020-Aug-11 06:50 021 0 gusting 2 20.0
2020-Aug-11 06:45 351 20.0
2020-Aug-11 06:40 348 2 gusting 3 20.0
2020-Aug-11 06:35 347 2 gusting 3 19.4
2020-Aug-11 06:30 343 2 gusting 3 19.4
2020-Aug-11 06:25 360 1 gusting 1 19.4
2020-Aug-11 06:20 011 19.4
2020-Aug-11 06:15 18.9
2020-Aug-11 06:10 18.9
2020-Aug-11 06:05 18.9
2020-Aug-11 06:00 18.9
2020-Aug-11 05:55 18.9
2020-Aug-11 05:50 18.9
2020-Aug-11 05:45 18.9
2020-Aug-11 05:40 18.9
2020-Aug-11 05:35 18.9
2020-Aug-11 05:30 360 18.9
2020-Aug-11 05:25 350 18.9
2020-Aug-11 05:20 347 0 gusting 2 18.9
2020-Aug-11 05:15 348 1 gusting 2 18.9
2020-Aug-11 05:10 343 2 gusting 2 18.9
2020-Aug-11 05:05 18.3
2020-Aug-11 05:00 18.3
2020-Aug-11 04:55 356 18.3
2020-Aug-11 04:50 355 18.9
2020-Aug-11 04:45 354 1 gusting 2 18.9
2020-Aug-11 04:40 359 1 gusting 2 18.9
2020-Aug-11 04:35 008 1 gusting 1 18.9
2020-Aug-11 04:30 18.9
2020-Aug-11 04:25 18.9
2020-Aug-11 04:20 18.9
2020-Aug-11 04:15 354 19.4
2020-Aug-11 04:10 360 0 gusting 2 19.4
2020-Aug-11 04:05 011 2 gusting 3 19.4
2020-Aug-11 04:00 022 2 gusting 3 19.4
2020-Aug-11 03:55 018 2 gusting 3 19.4
2020-Aug-11 03:50 011 3 gusting 3 19.4
2020-Aug-11 03:45 013 1 gusting 1 19.4
2020-Aug-11 03:40 012 1 gusting 1 19.4
2020-Aug-11 03:35 001 1 gusting 3 19.4
2020-Aug-11 03:30 360 19.4
2020-Aug-11 03:25 003 3 gusting 3 19.4
2020-Aug-11 03:20 349 1 gusting 2 19.4
2020-Aug-11 03:15 349 19.4
2020-Aug-11 03:10 002 2 gusting 4 19.4
2020-Aug-11 03:05 358 3 gusting 4 19.4
2020-Aug-11 03:00 357 3 gusting 3 19.4
2020-Aug-11 02:55 011 3 gusting 3 19.4
2020-Aug-11 02:50 19.4
2020-Aug-11 02:45 19.4
2020-Aug-11 02:40 18.9
2020-Aug-11 02:35 19.4
2020-Aug-11 02:30 010 19.4
2020-Aug-11 02:25 003 19.4
2020-Aug-11 02:20 359 1 gusting 2 19.4
2020-Aug-11 02:15 19.4
2020-Aug-11 02:10 19.4
2020-Aug-11 02:05 327 19.4
2020-Aug-11 02:00 337 19.4
2020-Aug-11 01:55 341 1 gusting 3 19.4
2020-Aug-11 01:50 340 2 gusting 3 19.4
2020-Aug-11 01:45 340 3 gusting 3 20.0
2020-Aug-11 01:40 337 2 gusting 2 20.0
2020-Aug-11 01:35 337 1 gusting 2 20.0
2020-Aug-11 01:30 343 2 gusting 2 20.0
2020-Aug-11 01:25 352 20.0
2020-Aug-11 01:20 359 2 gusting 2 20.0
2020-Aug-11 01:15 007 1 gusting 2 20.0
2020-Aug-11 01:10 022 1 gusting 1 20.0
2020-Aug-11 01:05 20.0
2020-Aug-11 01:00 014 20.0
2020-Aug-11 00:55 001 20.6
2020-Aug-11 00:50 348 1 gusting 2 20.6
2020-Aug-11 00:45 347 1 gusting 2 20.6
2020-Aug-11 00:40 350 1 gusting 3 20.6
2020-Aug-11 00:35 355 2 gusting 3 20.6
2020-Aug-11 00:30 354 3 gusting 3 20.6
2020-Aug-11 00:25 343 2 gusting 4 21.1
2020-Aug-11 00:20 332 2 gusting 4 21.1
2020-Aug-11 00:10 350 2 gusting 4 21.1
2020-Aug-11 00:05 006 4 gusting 5 21.1
2020-Aug-11 00:00 021 3 gusting 6 21.1
2020-Aug-10 23:55 020 4 gusting 6 21.1
2020-Aug-10 23:50 019 6 gusting 6 21.1
2020-Aug-10 23:45 031 4 gusting 5 21.1
2020-Aug-10 23:40 026 5 gusting 5 21.1
2020-Aug-10 23:35 005 3 gusting 4 21.7
2020-Aug-10 23:30 334 3 gusting 3 21.7
2020-Aug-10 23:25 345 2 gusting 3 21.7
2020-Aug-10 23:20 346 1 gusting 3 21.7
2020-Aug-10 23:15 327 3 gusting 4 21.7
2020-Aug-10 23:10 326 21.7
2020-Aug-10 23:05 340 3 gusting 4 21.7
2020-Aug-10 23:00 357 1 gusting 4 21.7
2020-Aug-10 22:55 358 3 gusting 5 21.7
2020-Aug-10 22:50 344 4 gusting 5 21.7
2020-Aug-10 22:45 342 2 gusting 4 21.7
2020-Aug-10 22:40 325 4 gusting 6 21.7
2020-Aug-10 22:35 327 3 gusting 6 21.7
2020-Aug-10 22:30 346 6 gusting 6 21.7
2020-Aug-10 22:25 332 3 gusting 3 22.2
2020-Aug-10 22:20 319 1 gusting 3 21.7
2020-Aug-10 22:15 260 2 gusting 3 21.7
2020-Aug-10 22:10 200 21.7
2020-Aug-10 22:05 179 3 gusting 6 21.7
2020-Aug-10 22:00 152 3 gusting 6 21.7
2020-Aug-10 21:55 134 4 gusting 4 22.2
2020-Aug-10 21:50 057 22.2
2020-Aug-10 21:45 054 22.2
2020-Aug-10 21:40 054 1 gusting 1 22.2
2020-Aug-10 21:35 22.8
2020-Aug-10 21:30 306 22.8
2020-Aug-10 21:25 346 22.8
2020-Aug-10 21:20 331 0 gusting 4 22.8
2020-Aug-10 21:15 317 0 gusting 5 22.8
2020-Aug-10 21:10 334 2 gusting 5 23.3
2020-Aug-10 21:05 348 1 gusting 2 23.3
2020-Aug-10 21:00 074 1 gusting 2 23.3
2020-Aug-10 20:55 034 23.3
2020-Aug-10 20:50 018 23.3
2020-Aug-10 20:45 023 3 gusting 3 22.8
2020-Aug-10 20:40 337 22.8
2020-Aug-10 20:30 020 22.8
2020-Aug-10 20:25 005 2 gusting 5 22.8
2020-Aug-10 20:20 346 2 gusting 5 22.8
2020-Aug-10 20:15 339 3 gusting 6 22.8
2020-Aug-10 20:10 341 4 gusting 6 23.3
2020-Aug-10 20:05 335 5 gusting 6 23.3
2020-Aug-10 20:00 342 1 gusting 6 23.3
2020-Aug-10 19:55 355 4 gusting 7 23.3
2020-Aug-10 19:50 349 5 gusting 7 23.9
2020-Aug-10 19:45 331 4 gusting 4 23.9
2020-Aug-10 19:40 319 3 gusting 3 24.4
2020-Aug-10 19:35 225 24.4
2020-Aug-10 19:30 344 1 gusting 8 24.4
2020-Aug-10 19:25 342 1 gusting 9 24.4
2020-Aug-10 19:20 334 9 gusting 9 24.4
2020-Aug-10 19:15 332 6 gusting 9 25.0
2020-Aug-10 19:10 334 7 gusting 9 25.0
2020-Aug-10 19:05 338 5 gusting 8 25.0
2020-Aug-10 18:55 349 3 gusting 13 25.6
2020-Aug-10 18:50 345 6 gusting 13 25.6
2020-Aug-10 18:45 341 6 gusting 13 26.1
2020-Aug-10 18:40 347 8 gusting 13 26.1
2020-Aug-10 18:35 001 9 gusting 13 26.7
2020-Aug-10 18:30 337 13 gusting 13 27.2
2020-Aug-10 18:25 280 8 gusting 9 27.8
2020-Aug-10 18:20 223 2 gusting 5 28.3
2020-Aug-10 18:15 145 2 gusting 5 28.9
2020-Aug-10 18:10 149 2 gusting 5 30.0
2020-Aug-10 18:05 154 2 gusting 2 30.6
2020-Aug-10 17:55 159 1 gusting 2 30.6
2020-Aug-10 17:50 162 1 gusting 3 30.6
2020-Aug-10 17:45 162 2 gusting 4 31.1
2020-Aug-10 17:40 158 2 gusting 4 31.1
2020-Aug-10 17:35 157 3 gusting 5 31.1
2020-Aug-10 17:30 158 3 gusting 5 31.1
2020-Aug-10 17:25 163 5 gusting 6 31.7
2020-Aug-10 17:20 163 5 gusting 6 31.7
2020-Aug-10 17:15 155 3 gusting 5 31.7
2020-Aug-10 17:10 158 2 gusting 6 31.7
2020-Aug-10 17:05 163 6 gusting 6 32.2
2020-Aug-10 17:00 159 3 gusting 6 32.2
2020-Aug-10 16:55 161 3 gusting 6 32.2
2020-Aug-10 16:50 169 5 gusting 6 32.2
2020-Aug-10 16:45 168 2 gusting 6 32.2
2020-Aug-10 16:40 167 1 gusting 6 32.2
2020-Aug-10 16:35 169 5 gusting 7 31.7
2020-Aug-10 16:30 174 4 gusting 7 32.2
2020-Aug-10 16:25 168 2 gusting 7 32.2
2020-Aug-10 16:20 166 5 gusting 6 32.2
2020-Aug-10 16:15 161 2 gusting 6 32.2
2020-Aug-10 16:10 151 1 gusting 9 32.2
2020-Aug-10 16:05 172 9 gusting 9 32.2
2020-Aug-10 16:00 175 3 gusting 7 32.2
2020-Aug-10 15:55 160 6 gusting 7 32.2
2020-Aug-10 15:50 166 2 gusting 9 32.8
2020-Aug-10 15:45 168 3 gusting 9 32.8
2020-Aug-10 15:40 159 5 gusting 11 32.8
2020-Aug-10 15:35 154 5 gusting 12 32.8
2020-Aug-10 15:30 161 5 gusting 12 33.3
2020-Aug-10 15:25 182 6 gusting 8 33.3
2020-Aug-10 15:20 179 6 gusting 12 33.9
2020-Aug-10 15:15 167 7 gusting 12 34.4
2020-Aug-10 15:10 167 1 gusting 9 34.4
2020-Aug-10 15:05 160 9 gusting 9 33.9
2020-Aug-10 15:00 170 6 gusting 10 34.4
2020-Aug-10 14:55 177 6 gusting 10 34.4
2020-Aug-10 14:50 167 3 gusting 13 35.0
2020-Aug-10 14:45 169 4 gusting 13 35.0
2020-Aug-10 14:40 172 7 gusting 13 35.6
2020-Aug-10 14:35 170 9 gusting 13 35.6
2020-Aug-10 14:30 167 6 gusting 9 35.6
2020-Aug-10 14:25 162 9 gusting 9 35.6
2020-Aug-10 14:20 168 9 gusting 9 35.6
2020-Aug-10 14:15 170 7 gusting 9 35.6
2020-Aug-10 14:10 172 6 gusting 9 35.6
2020-Aug-10 14:05 170 5 gusting 8 35.6
2020-Aug-10 14:00 169 6 gusting 9 35.6
2020-Aug-10 13:55 177 8 gusting 9 36.1
2020-Aug-10 13:50 180 4 gusting 6 36.1
2020-Aug-10 13:45 175 1 gusting 6 36.1
2020-Aug-10 13:40 175 6 gusting 6 36.1
2020-Aug-10 13:35 182 5 gusting 11 35.6
2020-Aug-10 13:30 176 3 gusting 11 35.6
2020-Aug-10 13:25 161 2 gusting 9 35.6
2020-Aug-10 13:20 156 3 gusting 8 35.6
2020-Aug-10 13:15 166 8 gusting 8 35.6
2020-Aug-10 13:10 174 3 gusting 6 35.6
2020-Aug-10 13:05 164 5 gusting 6 35.6
2020-Aug-10 13:00 163 5 gusting 7 35.6
2020-Aug-10 12:55 171 3 gusting 7 35.6
2020-Aug-10 12:50 173 1 gusting 6 35.6
2020-Aug-10 12:45 164 2 gusting 6 35.6
2020-Aug-10 12:40 160 6 gusting 8 35.6
2020-Aug-10 12:35 191 8 gusting 8 35.6
2020-Aug-10 12:30 176 1 gusting 7 35.6
2020-Aug-10 12:25 153 7 gusting 7 35.6
2020-Aug-10 12:20 162 5 gusting 5 35.0
2020-Aug-10 12:15 107 2 gusting 4 35.6
2020-Aug-10 12:10 158 35.0
2020-Aug-10 12:05 179 3 gusting 6 35.0
2020-Aug-10 12:00 164 1 gusting 6 34.4
2020-Aug-10 11:55 166 34.4
2020-Aug-10 11:50 162 3 gusting 5 34.4
2020-Aug-10 11:45 137 1 gusting 2 33.9
2020-Aug-10 11:40 150 0 gusting 3 33.9
2020-Aug-10 11:35 177 1 gusting 3 33.3
2020-Aug-10 11:30 139 2 gusting 3 33.3
2020-Aug-10 11:25 128 1 gusting 3 33.3
2020-Aug-10 11:20 198 33.3
2020-Aug-10 11:15 180 2 gusting 3 32.8
2020-Aug-10 11:10 150 1 gusting 5 32.8
2020-Aug-10 11:05 142 1 gusting 5 32.8
2020-Aug-10 11:00 129 5 gusting 5 32.8
2020-Aug-10 10:55 148 2 gusting 7 32.8
2020-Aug-10 10:50 161 5 gusting 7 32.2
2020-Aug-10 10:45 154 32.2
2020-Aug-10 10:40 148 2 gusting 6 31.7
2020-Aug-10 10:35 153 31.7
2020-Aug-10 10:30 152 4 gusting 4 31.1
2020-Aug-10 10:25 160 30.6
2020-Aug-10 10:20 171 1 gusting 5 30.6
2020-Aug-10 10:15 172 3 gusting 5 30.6
2020-Aug-10 10:10 174 0 gusting 3 30.0
2020-Aug-10 10:05 178 1 gusting 3 30.6
2020-Aug-10 10:00 193 2 gusting 2 30.6
2020-Aug-10 09:55 187 2 gusting 2 30.0
2020-Aug-10 09:50 172 0 gusting 2 30.0
2020-Aug-10 09:45 169 2 gusting 2 30.0
2020-Aug-10 09:40 158 2 gusting 4 30.0
2020-Aug-10 09:35 200 0 gusting 4 30.0
2020-Aug-10 09:30 237 30.6
2020-Aug-10 09:25 177 2 gusting 2 30.0
2020-Aug-10 09:20 227 0 gusting 3 29.4
2020-Aug-10 09:15 257 1 gusting 3 28.9
2020-Aug-10 09:10 173 1 gusting 3 28.9
2020-Aug-10 09:05 164 1 gusting 3 28.9
2020-Aug-10 09:00 143 28.9
2020-Aug-10 08:55 146 1 gusting 4 28.3
2020-Aug-10 08:50 147 4 gusting 4 28.3
2020-Aug-10 08:45 161 0 gusting 2 28.3
2020-Aug-10 08:40 207 28.3
2020-Aug-10 08:35 197 0 gusting 1 28.3
2020-Aug-10 08:30 307 27.8
2020-Aug-10 08:25 162 27.8
2020-Aug-10 08:20 147 0 gusting 3 27.8
2020-Aug-10 08:15 147 3 gusting 3 27.2
2020-Aug-10 08:10 157 3 gusting 3 26.7
2020-Aug-10 08:05 160 26.7
2020-Aug-10 08:00 153 2 gusting 2 26.7
2020-Aug-10 07:55 146 2 gusting 2 26.1
2020-Aug-10 07:50 150 25.6
2020-Aug-10 07:45 188 1 gusting 2 25.6
2020-Aug-10 07:40 197 1 gusting 2 25.6
2020-Aug-10 07:35 139 25.0
2020-Aug-10 07:30 142 24.4
2020-Aug-10 07:25 23.9
2020-Aug-10 07:20 23.9
2020-Aug-10 07:15 23.3
2020-Aug-10 07:10 22.8
2020-Aug-10 07:05 22.2
2020-Aug-10 07:00 157 22.2
2020-Aug-10 06:55 151 21.7
2020-Aug-10 06:50 143 0 gusting 1 21.7
2020-Aug-10 06:45 140 1 gusting 1 21.1
2020-Aug-10 06:40 21.1
2020-Aug-10 06:35 21.1
2020-Aug-10 06:30 20.6
2020-Aug-10 06:25 20.6
2020-Aug-10 06:20 149 20.6
2020-Aug-10 06:15 154 20.6
2020-Aug-10 06:10 157 20.6
2020-Aug-10 06:05 176 1 gusting 1 20.6
2020-Aug-10 06:00 292 20.6
2020-Aug-10 05:55 292 1 gusting 1 20.6
2020-Aug-10 05:50 20.0
2020-Aug-10 05:45 20.0
2020-Aug-10 05:40 20.0
2020-Aug-10 05:35 20.0
2020-Aug-10 05:30 20.6
2020-Aug-10 05:25 20.6
2020-Aug-10 05:20 022 20.0
2020-Aug-10 05:15 347 20.6
2020-Aug-10 05:10 355 0 gusting 3 20.6
2020-Aug-10 05:05 006 2 gusting 3 20.6
2020-Aug-10 05:00 013 1 gusting 3 20.6
2020-Aug-10 04:55 023 1 gusting 2 20.6
2020-Aug-10 04:50 039 2 gusting 2 20.6
2020-Aug-10 04:45 20.6
2020-Aug-10 04:40 20.6
2020-Aug-10 04:35 20.0
2020-Aug-10 04:30 360 20.0
2020-Aug-10 04:25 360 20.6
2020-Aug-10 04:20 006 0 gusting 2 20.6
2020-Aug-10 04:15 006 1 gusting 2 20.6
2020-Aug-10 04:10 356 2 gusting 2 20.6
2020-Aug-10 04:05 351 2 gusting 2 20.6
2020-Aug-10 04:00 360 1 gusting 1 21.1
2020-Aug-10 03:55 21.1
2020-Aug-10 03:50 21.1
2020-Aug-10 03:45 21.1
2020-Aug-10 03:40 360 21.1
2020-Aug-10 03:35 360 21.1
2020-Aug-10 03:30 025 0 gusting 0 21.1
2020-Aug-10 03:25 045 21.1
2020-Aug-10 03:20 019 21.1
2020-Aug-10 03:15 003 1 gusting 2 21.1
2020-Aug-10 03:10 352 1 gusting 3 21.7
2020-Aug-10 03:05 348 1 gusting 3 21.7
2020-Aug-10 03:00 345 1 gusting 3 21.7
2020-Aug-10 02:55 344 2 gusting 2 21.7
2020-Aug-10 02:50 343 0 gusting 3 21.7
2020-Aug-10 02:45 341 2 gusting 3 21.7
2020-Aug-10 02:40 358 3 gusting 3 22.2
2020-Aug-10 02:35 018 2 gusting 2 22.2
2020-Aug-10 02:30 025 2 gusting 2 22.2
2020-Aug-10 02:25 009 1 gusting 2 22.2
2020-Aug-10 02:20 352 1 gusting 2 22.2
2020-Aug-10 02:15 337 2 gusting 2 22.2
2020-Aug-10 02:10 21.7
2020-Aug-10 02:05 22.2
2020-Aug-10 02:00 22.2
2020-Aug-10 01:55 22.2
2020-Aug-10 01:50 22.2
2020-Aug-10 01:45 22.8
2020-Aug-10 01:40 22.8
2020-Aug-10 01:35 22.8
2020-Aug-10 01:30 22.8
2020-Aug-10 01:25 22.8
2020-Aug-10 01:20 23.3
2020-Aug-10 01:15 23.3
2020-Aug-10 01:10 23.3
2020-Aug-10 01:05 23.3
2020-Aug-10 01:00 360 23.9
2020-Aug-10 00:55 351 23.9
2020-Aug-10 00:50 352 1 gusting 2 23.9
2020-Aug-10 00:40 353 2 gusting 2 24.4
2020-Aug-10 00:35 360 1 gusting 1 24.4
2020-Aug-10 00:30 011 24.4
2020-Aug-10 00:25 007 0 gusting 1 24.4
2020-Aug-10 00:20 348 1 gusting 1 24.4
2020-Aug-10 00:15 001 24.4
2020-Aug-10 00:10 357 24.4
2020-Aug-10 00:05 004 2 gusting 3 25.0
2020-Aug-10 00:00 010 2 gusting 3 25.0
2020-Aug-09 23:55 354 2 gusting 3 25.0
2020-Aug-09 23:50 354 2 gusting 3 25.0
2020-Aug-09 23:45 357 2 gusting 3 25.0
2020-Aug-09 23:40 349 2 gusting 3 25.0
2020-Aug-09 23:35 005 2 gusting 3 25.0
2020-Aug-09 23:30 004 1 gusting 3 25.0
2020-Aug-09 23:25 352 3 gusting 3 25.0
2020-Aug-09 23:20 355 2 gusting 3 25.0
2020-Aug-09 23:10 360 25.0
2020-Aug-09 23:05 360 1 gusting 1 25.6
2020-Aug-09 23:00 25.6
2020-Aug-09 22:55 067 25.6
2020-Aug-09 22:50 012 25.6
2020-Aug-09 22:45 002 1 gusting 2 25.6
2020-Aug-09 22:40 003 1 gusting 2 25.6
2020-Aug-09 22:35 354 2 gusting 2 25.6
2020-Aug-09 22:30 343 0 gusting 2 25.6
2020-Aug-09 22:25 002 1 gusting 2 25.6
2020-Aug-09 22:20 134 25.6
2020-Aug-09 22:15 131 1 gusting 2 25.6
2020-Aug-09 22:10 136 2 gusting 4 25.6
2020-Aug-09 22:05 145 0 gusting 4 25.6
2020-Aug-09 22:00 145 3 gusting 3 25.6
2020-Aug-09 21:55 135 1 gusting 1 25.6
2020-Aug-09 21:50 135 25.6
2020-Aug-09 21:45 135 0 gusting 1 25.6
2020-Aug-09 21:40 135 1 gusting 1 25.6
2020-Aug-09 21:35 26.1
2020-Aug-09 21:30 037 26.1
2020-Aug-09 21:25 037 26.1
2020-Aug-09 21:20 26.7
2020-Aug-09 21:15 26.1
2020-Aug-09 21:10 26.7
2020-Aug-09 21:05 355 26.7
2020-Aug-09 21:00 355 0 gusting 0 27.2
2020-Aug-09 20:55 028 27.2
2020-Aug-09 20:50 067 0 gusting 2 27.2
2020-Aug-09 20:45 101 2 gusting 2 27.2
2020-Aug-09 20:40 187 27.8
2020-Aug-09 20:35 140 1 gusting 3 27.8
2020-Aug-09 20:30 138 1 gusting 3 27.8
2020-Aug-09 20:25 143 1 gusting 3 27.8
2020-Aug-09 20:20 152 1 gusting 2 27.8